GFSSE_con_3kmhel_000.txt.gz
Helicity
-54 -74 -55 -48 -46 -33 21 33 42 53 102 111 143 108 83 75 58 57 106 92 88 84 68 63 54 70 59 78 113 134 114 72 126 93 62 63 57 61 71 54 38 43 42
-18 -57 -54 -55 -37 -5 1 76 67 51 66 82 67 61 48 44 85 139 127 127 116 104 99 101 50 40 80 89 104 112 101 86 42 55 73 54 51 50 57 74 73 58 48
-20 -44 -53 -31 -13 18 28 35 50 55 44 47 39 36 29 37 76 101 108 104 78 41 13 11 13 29 41 44 44 48 68 78 75 49 29 42 48 44 47 69 74 67 56
-33 -32 -33 -21 -15 8 15 24 35 42 35 42 43 47 44 57 84 78 64 57 48 36 20 4 11 39 51 63 69 39 54 50 47 31 59 78 31 12 27 33 44 50 58
-26 -32 -17 -12 -7 6 16 10 23 25 18 19 20 19 23 50 72 61 55 52 56 53 51 57 71 68 57 28 67 83 100 95 44 76 90 102 74 50 3 19 16 32 46
-30 -28 -27 -10 -3 -11 -5 11 14 21 30 32 25 21 32 47 46 46 60 67 68 65 73 81 84 78 67 61 60 38 56 63 110 126 71 101 48 64 14 3 -1 9 20
-15 -42 -45 -21 -20 -20 -2 12 33 52 64 46 28 27 41 52 53 40 42 37 37 41 54 74 75 83 77 50 48 56 64 123 135 110 79 101 102 52 27 -5 1 6 13
-11 -56 -42 -21 -13 8 20 34 47 56 61 44 30 21 15 19 18 21 26 34 46 57 55 46 41 56 40 41 65 44 58 73 67 79 79 96 80 28 23 17 5 7 14
-12 10 1 0 11 21 27 34 54 63 61 52 40 25 33 35 21 3 -11 -5 27 43 48 39 31 13 19 41 72 97 111 128 113 113 101 96 108 86 57 27 12 11 18
23 16 9 22 29 38 34 30 60 48 42 39 29 40 47 42 34 29 25 21 28 31 26 24 32 35 42 53 64 86 103 97 90 96 94 90 162 179 108 52 16 15 26
14 7 19 44 67 65 56 39 30 31 36 39 40 50 59 47 37 33 31 39 48 47 49 51 47 47 51 53 57 62 75 76 76 69 72 92 106 151 160 124 56 9 24
18 8 40 80 88 81 54 64 43 22 38 50 56 59 55 47 46 41 42 47 48 48 58 77 72 67 66 48 40 47 29 37 51 71 62 91 100 92 113 154 148 70 24
52 56 77 91 89 81 57 61 64 60 64 60 61 68 62 53 51 60 60 59 63 64 66 70 65 55 52 50 51 47 35 31 17 20 61 101 104 90 90 117 148 133 86
98 77 77 72 71 55 42 62 71 88 89 83 77 80 76 79 76 75 79 76 78 76 71 75 73 65 57 56 53 50 56 59 51 36 32 71 80 101 104 84 103 139 128
91 97 68 76 67 55 64 82 101 99 105 108 110 111 114 100 96 100 91 90 83 79 77 76 79 77 61 48 51 57 60 57 65 65 55 69 79 86 92 104 102 105 123
86 77 73 77 71 80 80 87 75 84 93 117 126 122 118 122 124 126 113 107 103 95 83 72 63 64 70 59 51 46 43 49 40 44 57 74 90 81 73 87 108 116 103
118 90 96 79 60 72 71 69 68 71 92 102 102 99 108 118 124 126 123 119 114 112 100 91 79 70 67 70 74 64 52 40 18 14 17 35 69 114 103 82 91 95 108
141 111 81 61 51 44 53 46 51 62 78 90 95 114 118 123 128 135 141 126 123 133 130 124 106 98 90 80 77 77 67 52 30 28 4 18 -5 34 89 125 110 107 124
115 119 81 41 22 43 56 56 61 66 86 97 115 143 148 146 139 156 165 148 145 151 152 153 139 145 134 108 86 82 85 88 71 44 49 35 60 49 55 110 161 171 179
102 107 94 43 18 38 80 81 93 79 74 92 111 145 159 193 196 218 202 186 201 193 174 179 164 160 153 135 125 112 101 96 68 34 36 45 43 58 75 84 107 153 196
80 86 73 59 48 42 88 96 101 109 110 115 124 155 174 207 231 266 285 265 274 271 220 233 218 179 162 166 160 144 130 101 56 60 48 15 12 34 54 68 53 79 119
32 39 36 39 50 73 136 167 140 128 125 126 130 140 183 205 244 298 331 352 365 357 311 279 329 303 258 267 245 230 172 166 156 104 90 46 -9 5 54 54 63 59 62
-3 31 42 42 64 106 123 123 120 124 136 127 132 164 204 178 185 242 277 331 373 430 403 373 396 414 344 375 359 310 272 203 169 155 133 94 33 28 20 28 34 69 90
40 44 40 69 95 116 133 132 131 122 127 142 193 190 137 117 142 184 227 270 298 350 392 442 440 512 525 487 463 397 414 357 293 216 154 106 88 22 -14 -19 -2 42 82
100 122 144 175 200 182 153 123 127 140 177 184 132 115 134 131 130 131 156 177 239 303 360 418 464 439 486 489 501 485 512 479 393 295 204 175 55 -45 -61 -34 5 10 47
200 234 240 245 229 196 138 93 60 72 72 77 92 117 124 122 117 131 129 165 242 294 350 485 635 693 733 781 712 619 655 634 602 571 403 197 104 -15 -7 -40 1 23 32

GFSSE_con_3kmhel_003.txt.gz
Helicity
-21 -8 -20 -36 -62 -29 6 11 23 47 61 64 66 76 93 94 114 109 107 100 101 97 90 79 63 58 44 59 59 56 49 51 62 56 42 40 37 57 56 58 41 33 53
-21 -54 -56 -70 -53 -29 18 28 31 37 42 37 41 56 79 120 137 124 117 108 83 72 59 54 48 35 42 60 47 47 33 22 25 26 38 20 26 35 51 69 64 53 50
-11 -45 -41 -26 -21 0 19 25 19 35 38 39 33 49 76 108 132 116 108 86 46 30 7 2 22 30 36 63 86 73 71 52 50 37 45 30 20 31 48 63 68 70 58
-34 -51 -57 -45 -35 -21 9 22 21 12 16 28 32 48 62 86 99 101 86 65 46 37 44 62 91 92 92 95 94 104 116 84 71 68 48 63 43 22 36 34 48 62 55
-56 -71 -72 -64 -52 -36 -10 -4 -11 -9 6 20 32 39 59 69 78 81 74 64 66 86 102 115 105 90 80 84 62 60 80 97 121 84 48 43 65 17 11 8 22 39 56
-46 -72 -75 -59 -46 -34 -14 5 11 22 27 33 31 41 44 45 65 69 63 55 65 84 94 94 92 78 80 71 70 65 83 104 85 68 49 57 50 40 32 14 10 18 31
-43 -52 -38 -35 -34 -17 -1 13 28 38 45 46 50 45 49 53 48 47 61 68 63 69 81 79 82 85 68 61 58 52 68 81 84 105 76 81 69 51 47 19 12 2 10
-29 -34 -31 -35 -28 -12 7 27 42 57 54 54 39 22 27 37 37 30 23 27 34 37 30 22 32 42 56 73 77 77 95 104 105 115 132 134 142 114 88 56 44 13 12
-16 -12 -14 -8 -4 11 24 29 37 32 38 42 20 5 19 25 22 18 13 17 29 27 21 21 21 25 34 39 56 77 115 144 124 139 141 135 141 135 143 103 69 29 11
-8 -4 -1 5 22 30 25 24 22 20 25 26 17 16 22 23 23 22 18 27 33 32 27 20 26 35 42 59 66 75 88 103 126 128 133 138 147 146 98 56 86 62 19
-21 -9 0 30 49 47 31 16 9 7 20 24 29 33 30 25 25 27 38 36 36 38 41 42 41 48 53 59 68 68 52 55 57 74 93 118 127 115 131 134 160 107 53
11 -2 8 40 61 62 41 35 25 14 15 21 25 30 29 30 30 27 33 43 50 53 50 47 48 48 47 55 58 54 54 49 47 55 59 79 89 95 106 110 125 124 110
11 6 29 41 58 51 30 26 24 23 32 38 42 44 54 52 44 41 39 32 36 43 37 33 31 32 43 55 64 64 58 51 56 54 70 85 103 112 110 97 99 122 120
40 22 20 24 38 31 25 41 41 40 39 47 56 59 61 63 63 69 65 58 59 53 49 51 50 42 37 38 48 64 71 66 62 62 70 78 87 96 85 100 104 105 135
10 11 4 26 40 35 27 28 38 49 53 51 62 71 79 75 79 86 90 90 85 75 70 65 61 63 58 49 45 40 38 48 55 60 63 84 98 106 100 96 98 127 129
10 18 15 21 26 28 25 27 30 37 35 43 62 72 71 72 72 73 72 76 79 84 82 79 79 74 70 62 51 40 35 28 34 49 63 74 86 109 125 132 127 104 122
34 34 34 35 29 21 11 29 32 34 44 41 50 53 60 76 81 78 74 68 67 74 80 92 87 85 77 72 61 59 54 50 31 19 -4 8 40 77 131 164 176 159 143
27 35 31 51 41 15 13 42 50 42 50 44 47 49 54 68 77 82 88 85 77 86 93 99 97 93 86 89 88 80 70 67 63 64 26 -12 -9 19 66 135 159 180 185
54 72 58 62 34 27 19 36 45 49 58 54 45 48 52 74 94 117 123 124 121 120 133 137 128 132 120 116 105 89 84 81 70 80 68 28 8 -2 21 54 110 147 187
60 63 80 90 60 55 33 38 46 50 69 70 74 81 76 97 109 135 150 166 172 183 188 208 195 181 162 143 142 121 110 102 107 106 101 80 50 50 28 32 56 71 109
66 77 91 80 85 70 74 71 83 90 63 56 54 66 84 108 123 141 148 124 153 202 241 253 232 224 229 207 200 142 129 114 130 135 150 113 78 77 64 41 36 63 71
38 41 66 106 116 101 83 97 113 114 102 99 95 81 94 94 91 97 116 129 135 162 171 226 278 289 260 286 273 209 184 116 102 127 164 117 100 87 76 65 42 36 54
89 88 86 95 108 122 127 126 122 113 123 104 95 90 78 50 57 72 73 83 101 138 190 214 234 255 289 284 293 287 224 186 144 126 122 139 122 105 90 46 12 2 18
91 123 130 151 181 180 167 144 131 101 102 102 94 90 58 59 79 88 90 94 101 118 142 171 193 224 220 240 313 331 419 357 266 172 191 176 196 137 99 56 12 -19 -8
231 231 197 194 203 172 118 109 114 108 52 36 27 21 31 39 60 73 96 126 146 142 132 137 162 191 189 207 270 367 405 418 390 326 231 194 238 205 100 58 26 -25 -7
275 248 216 234 204 159 125 88 39 29 64 86 55 20 23 48 71 104 132 176 199 205 207 206 238 321 362 380 443 511 425 513 456 483 422 372 313 273 155 75 15 -16 -36

GFSSE_con_3kmhel_006.txt.gz
Helicity
23 32 21 -22 -51 -28 -15 -1 2 10 36 42 62 91 107 146 136 137 140 121 111 103 99 85 74 52 35 40 31 46 44 23 35 42 31 35 30 35 40 38 -7 39 -2
16 21 13 -24 -21 8 8 13 20 18 31 36 49 72 99 127 122 119 110 103 88 92 80 66 60 53 62 76 78 73 61 60 48 44 27 19 26 33 34 27 37 96 31
-8 -12 -8 -25 -11 19 19 14 19 27 27 20 39 63 80 93 96 106 98 80 69 62 61 61 54 79 101 102 103 117 106 88 84 56 29 -5 37 21 17 18 45 63 53
-43 -46 -31 -25 -15 -12 -6 -1 13 24 36 49 66 84 95 92 89 89 82 77 57 55 64 67 67 73 73 84 75 93 85 92 76 61 14 47 56 49 13 11 21 30 52
-47 -45 -23 -20 -17 1 9 2 12 33 44 55 57 71 90 98 91 69 67 62 65 70 79 94 102 92 74 59 55 45 49 58 62 56 76 75 46 64 37 21 1 14 29
-18 -19 -22 -37 -27 -4 9 23 34 41 52 65 59 56 53 61 71 75 60 49 46 55 64 74 78 79 78 72 59 46 52 67 60 53 63 96 63 79 61 68 11 41 27
-17 -19 -18 -35 -12 1 16 26 40 61 67 56 48 42 42 34 40 48 51 42 38 35 38 55 58 64 58 46 43 46 58 54 29 50 78 85 69 92 81 116 21 30 24
-8 -15 -5 -9 -19 -7 7 22 35 44 42 45 47 39 38 49 50 53 45 38 31 32 30 30 33 32 37 43 46 42 51 37 28 75 98 68 139 134 116 104 95 116 38
-8 2 3 -3 -0 -7 5 23 28 19 18 27 27 19 28 36 38 41 37 27 22 20 22 29 32 35 38 35 30 34 41 54 67 79 81 101 151 135 125 134 153 158 114
-3 -0 -5 -5 4 28 50 37 19 8 13 22 27 27 34 30 33 37 19 52 41 37 30 28 30 34 35 43 46 42 22 -0 53 66 73 140 127 146 145 100 92 143 73
-1 -1 -3 6 24 29 20 28 31 27 22 20 28 38 22 39 45 34 71 47 45 39 30 26 27 23 7 19 35 28 -3 46 32 49 65 110 117 114 115 135 116 78 87
18 3 11 5 16 17 19 14 17 17 19 24 25 28 29 49 60 52 64 66 58 53 43 36 28 3 -12 43 41 15 47 55 32 49 74 78 78 86 87 102 109 92 85
12 5 3 5 9 7 12 4 4 -0 1 9 17 23 38 38 51 52 58 50 48 48 43 42 42 47 60 52 64 69 73 48 56 49 102 87 76 76 78 86 107 113 88
7 -4 -4 1 14 16 -2 -6 -15 -6 -0 -1 8 21 34 38 46 52 58 58 46 53 48 46 51 57 45 38 47 61 75 82 80 61 89 81 80 92 98 93 92 113 110
-2 -11 -7 7 17 13 4 -10 -5 -0 15 15 15 23 22 22 33 46 57 55 58 56 48 44 43 45 47 44 40 41 46 60 67 71 67 68 76 96 105 108 104 97 117
-15 -3 14 24 28 24 8 4 10 23 25 28 26 26 17 16 24 31 36 40 43 47 48 48 47 45 46 49 43 43 43 52 54 66 63 55 70 94 125 137 132 121 121
-18 -1 32 46 41 34 37 29 29 29 23 31 31 25 10 5 11 16 25 32 43 52 49 46 52 52 50 57 55 62 54 47 49 47 45 69 45 49 86 133 156 161 149
-16 19 51 73 60 54 52 40 25 32 33 38 42 34 35 27 30 33 39 45 48 55 56 57 57 61 58 52 57 66 77 81 75 62 50 53 66 65 30 97 120 152 171
15 53 79 90 73 72 85 63 50 43 29 55 55 54 51 48 56 70 70 71 76 86 90 92 90 98 101 105 88 84 85 90 85 70 67 67 88 90 71 66 65 94 132
54 82 98 108 108 118 125 82 55 52 62 65 80 87 75 68 70 72 72 72 83 89 84 79 88 104 142 129 138 145 132 109 102 106 85 78 95 101 67 67 17 39 60
102 100 92 185 170 176 156 104 94 91 103 117 121 107 86 91 77 73 73 85 86 102 99 95 104 114 123 143 153 167 173 166 154 144 128 126 112 105 118 77 71 78 55
150 177 167 194 201 185 150 124 111 128 162 134 134 105 94 98 97 93 93 88 81 85 85 97 105 130 157 167 181 173 179 176 179 157 120 164 135 147 125 99 123 74 66
140 158 188 211 194 191 163 141 136 140 132 150 133 115 96 105 90 72 58 58 58 70 97 111 130 135 161 177 191 278 222 260 139 140 214 166 125 134 126 162 90 74 64
172 198 211 209 189 167 162 139 120 145 155 133 89 52 65 71 52 37 52 60 74 105 128 148 161 174 165 182 207 209 210 196 236 232 249 221 211 211 173 170 121 70 66
215 230 214 191 172 131 115 90 73 72 34 26 102 141 110 96 57 61 62 72 106 136 166 164 175 182 178 190 208 251 318 221 211 253 285 293 214 242 289 196 160 146 76
201 200 176 144 118 123 61 24 -12 -9 7 106 147 130 115 75 74 70 106 138 169 207 239 212 219 247 244 313 334 399 436 525 491 391 248 246 265 160 180 253 184 112 122

GFSSE_con_3kmhel_009.txt.gz
Helicity
59 -4 4 -10 -12 -15 -17 -5 8 24 37 59 73 88 95 90 89 93 93 98 101 96 84 71 70 60 53 52 59 57 55 61 49 53 50 40 37 40 32 13 -8 54 35
77 31 7 -10 -9 -6 -0 12 23 15 48 75 79 76 75 86 90 92 98 101 99 97 85 76 70 71 70 65 83 86 88 77 74 44 47 15 19 42 37 33 54 22 1
41 33 18 27 1 7 13 29 31 43 63 78 83 71 75 82 82 79 81 77 80 80 78 77 74 69 68 62 58 73 96 104 91 67 29 -3 70 34 48 48 59 56 45
24 20 14 29 46 24 26 21 23 33 51 65 83 91 83 72 65 75 79 75 65 61 57 60 67 59 57 51 43 37 35 45 52 55 21 16 86 104 69 56 47 47 37
10 24 31 34 36 32 25 29 30 42 64 80 85 77 59 53 52 52 56 67 72 61 56 68 76 76 65 51 36 38 37 25 12 16 7 48 2 141 87 57 48 2 17
10 31 22 24 34 40 43 51 63 69 57 53 45 31 34 20 33 45 60 62 67 70 78 78 77 73 62 54 45 30 30 38 29 -0 15 143 79 87 102 79 88 73 45
24 31 32 40 43 37 34 42 45 55 64 65 61 64 55 51 55 60 63 63 59 60 62 59 61 61 51 40 35 36 24 -4 5 -5 8 122 82 183 100 88 110 132 143
38 38 22 17 15 20 24 51 59 57 42 38 50 47 44 48 53 58 65 62 55 56 50 49 43 38 34 32 28 30 28 20 -8 1 63 82 162 143 90 70 103 100 112
29 24 22 33 35 30 32 33 32 24 29 37 37 36 37 45 52 55 59 58 52 47 39 32 28 27 23 25 28 24 12 2 9 76 41 99 145 128 101 91 74 69 75
12 36 47 19 29 26 43 31 26 30 34 34 35 32 25 24 28 32 46 70 61 52 44 32 25 20 13 11 19 13 -10 -40 13 37 78 79 141 118 112 82 81 60 46
24 58 23 27 13 4 14 25 31 27 32 31 34 28 20 26 41 57 106 84 67 57 37 17 9 1 -16 -25 -7 8 5 16 56 25 108 145 104 94 98 111 93 77 60
39 33 37 16 17 1 3 8 25 22 26 27 39 32 34 57 60 47 59 57 29 30 34 9 5 -5 -4 46 52 5 30 105 41 85 138 115 88 71 77 87 89 80 80
36 20 38 19 -0 -18 1 -21 -1 2 18 21 18 25 32 35 56 44 60 61 69 52 39 49 48 41 84 54 69 74 74 53 60 92 157 126 103 74 65 64 74 88 104
39 27 19 18 5 -6 -27 -13 -7 -1 23 14 49 27 41 34 48 51 46 56 51 67 64 45 45 59 38 36 37 45 49 63 82 104 164 130 113 93 90 71 60 60 77
30 27 35 36 9 10 4 1 6 2 32 35 42 56 43 38 48 26 35 26 35 37 41 47 44 45 48 32 39 35 33 42 55 74 115 131 106 98 100 101 99 82 80
18 48 42 33 31 31 18 36 32 42 43 46 55 80 58 45 47 13 33 20 15 30 53 55 53 51 42 44 45 49 53 56 63 70 63 127 92 92 99 111 111 114 117
19 15 75 28 77 52 50 63 61 85 41 43 48 56 53 45 43 36 27 25 24 41 45 48 61 62 58 51 44 61 61 55 63 79 84 69 122 88 91 108 111 119 126
-7 36 47 56 111 73 96 94 101 88 44 27 45 65 69 55 54 45 42 41 50 72 62 70 69 76 80 84 99 93 87 101 83 111 99 91 93 117 118 115 114 110 117
15 14 44 109 88 106 120 100 116 86 32 55 65 87 132 73 108 81 66 60 77 83 91 75 68 71 79 83 97 102 133 145 134 125 128 117 135 142 130 175 136 105 111
24 40 28 112 82 139 135 132 97 86 64 73 116 167 135 106 136 103 93 93 88 82 100 96 101 77 82 91 67 89 135 164 205 191 156 172 169 164 133 199 199 125 99
96 76 57 213 258 112 129 158 164 120 124 141 146 194 163 199 117 108 103 146 136 115 110 88 77 81 107 96 101 143 149 149 154 197 181 189 173 166 203 135 215 130 103
217 297 279 254 195 181 202 263 162 131 156 124 137 176 97 133 75 87 151 170 129 120 95 84 79 102 114 128 143 138 161 170 204 226 270 248 202 193 217 182 191 137 212
130 150 203 229 237 263 257 217 214 155 152 178 209 143 128 89 101 125 131 144 127 105 97 105 118 126 140 144 139 160 173 198 177 154 145 288 214 233 257 257 287 262 214
151 193 225 247 240 223 265 227 153 136 169 175 112 102 136 76 131 126 135 123 109 66 67 85 138 206 177 157 159 184 190 181 174 143 111 151 181 227 221 236 209 309 245
139 177 193 187 200 170 151 86 42 111 105 91 112 199 156 138 164 145 126 116 72 37 67 97 130 143 158 180 205 231 326 318 277 285 254 162 154 178 236 267 106 268 222
165 162 137 134 123 75 15 36 95 159 142 150 147 161 200 184 151 138 119 115 51 41 117 161 159 238 318 204 207 215 245 216 302 277 284 287 224 146 164 205 196 205 286

GFSSE_con_3kmhel_012.txt.gz
Helicity
73 16 17 9 7 25 31 43 54 63 68 74 77 71 66 68 71 75 82 84 82 81 77 64 59 61 53 49 52 55 53 60 58 50 45 47 57 61 72 57 36 23 37
80 13 52 34 30 32 41 64 72 73 61 53 55 68 66 70 74 81 79 75 76 76 75 69 66 63 50 39 36 35 57 68 62 55 44 31 35 50 55 81 35 11 4
33 38 64 35 31 42 57 64 66 60 61 55 51 58 57 59 68 74 77 78 81 83 85 82 77 66 62 53 55 49 48 50 34 35 44 27 49 83 65 67 40 -4 -20
93 57 69 59 49 55 70 67 60 63 63 52 54 47 46 59 63 60 63 67 81 85 77 68 65 61 60 63 65 64 59 37 23 31 25 35 89 184 52 53 75 48 23
97 46 69 79 83 90 80 69 62 68 68 72 70 62 61 50 45 55 62 69 74 74 63 56 54 57 63 67 61 56 50 24 27 24 19 53 25 85 40 32 52 68 53
42 61 59 62 69 68 71 68 75 79 75 74 77 75 68 57 54 58 60 69 69 66 54 50 42 43 37 33 35 37 29 19 26 19 23 43 71 62 51 -28 62 73 65
51 35 44 57 65 78 86 90 85 82 75 60 52 47 46 41 43 52 58 58 54 51 48 38 32 26 24 25 22 12 14 14 -5 14 16 65 89 91 17 39 78 77 63
68 36 40 48 59 71 75 71 67 59 42 37 41 41 35 35 38 50 61 67 64 63 55 45 38 32 26 22 19 8 1 5 14 28 40 13 6 44 22 7 52 89 82
54 58 37 34 48 50 45 41 39 34 32 41 38 30 28 23 32 46 64 64 64 60 47 33 22 18 12 9 6 11 8 -7 6 25 82 95 116 102 100 76 70 72 64
62 62 47 38 24 28 -9 21 25 30 29 27 16 19 23 9 4 25 48 44 44 31 23 12 -1 -9 -10 -19 -25 -14 5 -4 44 78 153 112 107 103 88 94 79 69 65
67 45 44 58 43 54 18 0 1 16 16 22 11 21 33 1 37 36 52 50 26 4 13 14 -13 -5 6 11 13 -19 -3 80 58 31 122 136 121 93 75 73 71 80 77
90 17 64 29 35 -8 28 36 9 7 -18 -9 24 16 42 64 37 27 81 69 37 24 14 12 32 10 21 36 42 43 63 51 44 51 150 138 109 82 77 62 56 63 71
62 32 86 67 17 -9 -2 -33 12 17 31 20 96 49 44 27 64 65 72 54 69 66 37 61 53 58 58 53 41 28 17 24 29 54 139 144 120 103 91 63 49 48 61
81 110 171 36 16 3 -2 10 18 43 22 41 48 75 49 41 61 56 50 32 29 36 39 43 49 51 46 72 58 52 39 41 36 17 105 126 109 94 84 63 62 61 60
66 136 147 138 26 19 23 38 47 44 63 45 82 103 70 49 71 60 35 28 33 32 40 63 62 45 60 62 72 98 76 48 45 63 99 109 113 88 81 70 58 61 74
48 113 187 187 42 46 43 75 65 77 51 60 120 87 76 62 71 52 49 44 36 36 52 70 70 99 98 108 66 57 98 111 87 61 96 146 117 128 109 94 86 77 74
55 97 170 175 161 108 87 80 80 120 64 78 110 91 80 61 73 68 57 52 58 73 86 95 92 115 107 111 126 135 130 139 148 102 79 135 172 125 127 115 97 96 91
11 184 157 104 203 145 88 96 75 151 114 14 81 96 138 129 110 99 85 84 89 95 103 110 106 99 105 101 104 111 125 154 160 195 208 194 189 196 171 138 117 107 90
24 53 49 208 193 152 152 70 127 135 81 121 104 162 244 157 208 145 118 102 98 112 116 99 100 114 126 115 101 103 104 127 177 188 229 262 274 212 303 216 184 161 142
63 109 82 176 135 130 183 139 102 93 65 110 173 211 228 156 209 172 143 144 127 136 137 151 127 119 113 102 86 84 91 98 108 126 179 237 305 293 254 368 321 250 200
119 204 308 295 221 233 220 207 267 269 301 290 225 209 183 217 193 117 95 137 119 195 176 155 156 139 117 91 81 78 80 84 99 136 154 197 250 304 360 386 419 338 267
293 228 172 253 330 357 326 283 208 279 227 157 177 243 270 224 129 75 93 173 199 149 142 144 134 114 99 81 86 85 118 85 102 101 112 158 198 248 347 419 411 328 325
220 203 190 194 213 263 371 340 357 237 241 205 158 132 184 189 120 153 186 150 148 126 116 100 98 99 122 108 121 147 129 143 141 153 121 82 95 98 214 231 214 290 346
133 168 186 194 197 186 235 175 138 117 99 135 205 212 162 129 223 216 153 143 144 151 121 114 156 153 154 145 163 298 321 267 149 98 151 183 144 82 124 151 158 167 371
90 123 160 129 135 121 118 106 94 127 130 127 118 128 179 284 194 158 161 156 154 131 128 139 159 196 224 206 187 187 166 164 170 177 154 187 123 151 51 166 137 170 164
48 67 85 62 78 77 52 130 105 66 71 134 148 207 199 152 150 141 139 116 96 84 134 205 217 248 225 215 219 227 173 109 110 135 191 161 88 26 94 -37 101 158 362

GFSSE_con_3kmhel_015.txt.gz
Helicity
61 19 80 92 72 64 64 63 61 53 49 41 38 37 39 49 60 68 77 82 87 87 80 76 68 68 66 64 67 60 52 53 69 80 70 54 52 60 56 37 37 35 63
65 48 87 88 69 61 61 66 67 56 43 40 40 43 55 70 76 76 76 73 73 74 76 74 76 73 62 59 63 60 62 61 65 70 82 59 26 46 45 21 41 11 26
103 79 96 80 71 74 78 78 66 48 38 47 57 64 78 83 84 80 75 72 73 79 78 76 76 75 70 59 57 55 57 60 58 57 59 71 51 79 62 53 50 36 23
90 94 86 83 71 72 74 75 63 56 61 60 67 82 83 73 66 60 52 41 49 51 51 51 53 55 60 59 54 55 59 66 60 53 58 63 52 136 77 53 44 22 9
88 81 78 91 88 92 82 76 78 74 64 70 77 79 66 53 46 40 39 42 44 39 31 26 18 16 16 17 14 14 30 42 45 46 51 55 97 98 81 57 55 42 23
63 69 75 79 81 77 75 78 77 76 79 71 61 46 42 42 43 42 46 44 39 37 29 24 16 15 4 -0 2 3 3 20 29 43 44 60 55 36 61 109 95 60 -0
48 45 45 43 53 67 80 90 87 72 56 39 32 32 39 47 45 52 48 44 40 34 29 24 17 12 11 11 7 7 6 10 23 69 65 40 16 73 62 50 22 -5 22
30 16 15 33 53 73 75 62 49 43 33 31 29 35 42 38 40 49 47 43 40 31 21 14 5 3 9 10 9 12 26 32 35 77 41 32 -12 57 76 46 28 6 12
19 1 -13 4 29 35 32 27 28 19 21 16 24 34 19 22 17 21 42 39 36 22 16 3 -11 -6 10 15 17 17 28 51 83 77 56 36 27 35 35 24 52 61 54
2 -4 -19 16 12 -30 -28 -6 -0 9 9 -8 10 12 11 14 -0 9 26 16 3 6 2 -5 -8 6 9 23 25 25 56 103 92 52 85 65 37 34 57 71 79 78 74
-3 -1 2 12 -3 -17 -40 -29 -18 -12 -11 -22 -1 1 -7 5 10 13 32 30 7 21 10 -5 10 5 -2 -1 -5 -3 22 46 62 36 56 65 81 75 60 56 67 69 80
86 85 72 50 3 2 -10 13 -18 -27 -43 -44 -27 -0 -8 5 29 30 47 45 18 20 11 3 16 18 9 28 5 3 -2 -11 6 26 83 92 54 47 44 55 64 53 51
127 137 113 52 59 29 48 15 -1 -30 -39 -11 -4 53 32 56 68 72 53 30 34 19 38 31 31 42 37 54 47 37 15 -1 -5 20 52 65 45 36 34 39 48 45 41
180 224 164 120 88 45 55 55 33 44 67 64 75 91 73 63 72 78 58 28 10 31 29 39 45 34 30 41 49 50 63 55 37 41 49 56 60 31 17 28 38 42 45
236 229 223 136 130 69 74 65 110 81 86 121 109 93 91 80 64 44 30 20 14 29 42 46 48 37 51 58 67 59 57 77 80 72 84 71 81 73 39 18 19 26 30
229 224 247 197 74 75 92 68 96 100 90 114 93 80 89 78 54 50 49 48 43 48 49 52 50 50 44 61 82 97 98 104 116 110 110 108 102 108 88 60 44 31 27
140 481 615 391 6 10 97 105 107 85 105 85 95 95 95 115 104 118 101 83 76 71 62 56 53 58 58 59 66 70 86 95 126 162 179 181 170 132 121 101 72 57 41
278 356 458 150 363 40 28 85 161 144 85 111 140 208 267 281 201 175 143 129 127 114 90 80 62 81 77 81 74 69 75 81 80 115 165 207 241 240 197 147 121 85 66
118 245 209 191 97 60 45 100 121 124 100 125 190 235 252 267 224 185 162 155 168 143 124 112 87 89 72 67 67 74 75 77 93 91 100 106 173 270 291 214 168 152 134
231 177 166 81 -31 -6 110 212 245 266 265 242 241 342 359 318 280 200 161 137 152 125 110 81 81 85 92 101 103 99 102 91 82 87 87 96 139 178 284 310 285 250 225
183 204 281 306 318 293 342 301 301 322 318 360 437 292 218 201 160 162 149 161 186 149 93 84 86 108 117 111 104 91 91 98 93 85 71 83 95 130 167 268 381 384 331
287 291 234 249 304 372 333 335 322 289 271 218 162 180 218 226 265 317 265 218 192 146 129 94 92 97 110 125 106 111 103 58 15 75 59 66 92 120 165 173 135 229 281
229 159 133 133 150 223 253 246 245 236 214 211 177 158 168 246 245 224 210 201 161 149 135 114 108 133 124 105 158 132 151 170 87 28 63 85 96 87 104 131 225 162 164
184 120 74 38 72 119 129 140 146 141 149 124 117 191 241 218 213 183 159 125 110 100 114 126 136 136 125 114 86 157 125 80 47 59 86 97 131 104 55 50 67 133 201
64 62 55 67 82 91 66 58 53 71 111 198 236 214 188 181 149 137 132 120 104 95 84 64 72 102 109 115 117 114 135 156 153 101 67 24 50 88 75 69 33 8 89
-8 -21 -7 44 78 67 114 185 240 289 292 265 242 211 165 100 92 104 102 76 61 89 108 108 112 122 129 133 116 140 129 123 128 115 128 127 82 51 71 73 63 46 39

GFSSE_con_3kmhel_021.txt.gz
Helicity
-13 -7 58 75 73 61 54 57 67 57 62 67 66 57 65 76 85 96 104 106 100 98 107 108 101 90 74 78 79 72 80 85 70 71 54 45 64 69 50 59 63 67 101
24 15 54 75 71 63 56 66 54 60 70 65 53 53 61 69 74 78 77 69 61 57 60 58 55 57 55 50 52 56 72 77 68 55 42 53 49 60 47 50 38 34 43
35 36 66 79 68 60 68 65 72 82 66 51 52 61 66 77 75 55 36 31 33 34 29 21 21 24 28 25 36 35 41 41 38 31 31 37 41 67 48 52 39 43 44
39 61 75 76 74 75 66 68 72 61 50 49 56 65 71 52 42 31 27 28 32 28 29 33 35 39 30 25 37 37 34 27 19 16 28 49 58 40 30 31 31 49 48
42 41 64 84 71 65 63 67 51 46 49 47 51 52 38 32 24 23 26 24 24 27 31 36 38 36 35 37 46 53 51 30 26 24 20 2 20 11 12 43 99 42 33
54 38 68 69 71 61 73 66 55 46 47 45 28 21 19 14 12 14 9 11 13 20 21 28 34 35 39 50 57 59 72 53 39 19 9 -4 -6 4 36 20 37 62 21
44 65 59 63 57 57 41 53 60 52 33 13 8 13 7 4 -5 -6 -6 -6 -2 -0 2 12 19 29 42 55 57 58 66 71 51 34 26 -3 -5 2 14 14 -2 -1 -1
73 55 36 34 28 36 61 58 34 20 6 -2 3 -2 -10 -20 -19 -14 -16 -17 -15 -19 -13 -2 5 13 22 35 44 41 44 62 52 48 45 29 11 11 18 24 -3 -0 13
25 10 -6 3 26 49 41 16 5 -1 2 2 -10 -29 -34 -33 -29 -23 -29 -25 -25 -35 -37 -32 -16 -14 -13 -3 9 35 27 44 35 41 57 60 34 18 5 18 13 9 7
-11 -19 -21 -9 15 14 -13 -5 -8 -2 -2 -13 -27 -28 -26 -24 -28 -29 -33 -24 -30 -36 -33 -28 -17 -17 -21 -21 -17 -1 18 21 19 16 29 48 33 24 25 42 39 42 35
-5 -27 -26 -14 -21 -30 -24 -44 -23 -12 -17 -23 -26 -18 -16 -21 -20 -26 -38 -33 -37 -49 -44 -34 -29 -27 -22 -22 -23 3 14 12 11 3 15 9 21 32 31 39 49 52 59
-30 -52 -59 -42 -41 -30 -31 -41 -26 -27 -32 -25 -18 -11 -10 -11 -11 -7 -17 -29 -11 -15 -16 -14 -16 -3 6 7 1 -1 15 24 32 28 24 9 2 7 15 19 25 25 34
-29 -52 -69 -55 -32 -20 -22 -21 -25 -13 -14 -7 13 8 9 4 7 32 28 51 55 59 57 50 45 39 36 31 27 20 16 15 41 51 47 32 19 7 1 10 16 16 15
-17 -19 -36 -13 8 -3 -15 -6 4 13 7 17 22 36 59 64 74 90 86 101 94 77 86 63 47 29 28 26 19 13 18 27 31 44 44 27 41 49 45 36 30 35 33
30 27 25 22 19 5 1 31 39 32 37 40 50 70 87 109 116 111 124 132 120 106 78 58 41 37 37 44 41 14 12 34 59 88 88 50 28 22 41 59 56 45 67
96 91 69 75 28 38 56 77 41 39 60 73 68 88 113 136 147 169 174 169 165 130 96 82 64 63 48 49 54 42 45 51 75 85 107 99 89 84 60 33 32 58 61
147 144 147 126 50 59 93 103 96 77 95 98 120 157 175 190 205 194 216 209 167 153 151 120 93 71 62 42 47 66 72 83 84 95 95 106 132 130 115 98 80 37 50
260 277 272 228 71 91 109 105 92 128 127 152 182 224 257 271 279 258 268 216 156 146 102 104 36 8 75 63 51 61 74 77 83 91 97 89 111 141 153 186 180 147 78
409 475 378 331 229 130 42 132 178 216 241 253 293 344 364 329 300 287 211 175 147 116 108 63 75 104 89 100 104 114 111 108 94 83 118 119 120 142 161 238 270 234 189
557 633 413 266 151 98 171 181 247 328 345 317 322 329 330 323 276 179 157 178 147 112 108 139 132 123 96 80 108 124 134 127 151 160 134 125 107 102 116 144 168 190 251
430 381 227 141 150 121 171 239 308 288 215 228 259 227 232 162 158 167 133 140 101 92 88 99 84 105 71 93 68 88 67 95 136 160 147 117 129 106 70 79 95 121 165
173 162 156 116 87 113 144 156 135 90 126 154 132 168 158 167 141 142 110 106 117 98 148 151 137 101 84 113 82 52 71 54 124 113 106 100 109 67 64 50 39 87 120
40 37 45 18 45 73 86 90 98 107 118 127 147 188 211 195 168 126 117 117 120 105 136 138 155 163 153 122 131 106 120 117 92 49 78 25 26 -1 -24 -14 -4 62 99
-16 -8 -5 12 41 8 21 34 48 52 81 130 174 174 191 204 180 152 149 108 57 135 186 151 143 125 121 130 98 151 133 111 66 34 55 84 27 34 21 11 36 62 85
-9 27 43 32 37 31 34 39 70 121 173 208 191 177 193 148 152 86 125 -36 75 152 133 112 92 101 93 89 105 108 101 103 115 139 72 63 68 78 81 36 71 84 98
55 77 91 103 91 108 147 170 185 201 183 177 156 168 194 214 158 115 112 130 120 99 77 53 76 101 105 118 121 137 149 124 158 146 143 153 90 43 32 48 84 112 132

GFSSE_con_3kmhel_024.txt.gz
Helicity
-51 -57 -6 37 51 47 59 75 83 85 84 80 83 91 91 95 95 97 95 79 70 64 64 61 63 68 80 80 76 72 54 62 49 58 57 35 24 43 43 36 39 46 71
0 -36 0 32 52 68 77 79 86 90 71 74 73 69 68 73 75 58 39 34 39 45 42 36 37 43 44 47 45 36 25 15 11 -6 7 1 2 15 16 24 35 29 46
14 -10 -6 32 65 72 65 71 77 66 60 51 44 42 50 45 30 25 28 29 34 40 45 45 45 46 45 39 46 34 33 13 -1 -13 -19 -10 -2 -3 15 24 28 33 31
19 6 9 38 59 53 56 73 69 50 44 39 28 34 25 16 15 20 24 22 32 42 47 44 44 49 51 45 45 44 35 21 11 4 0 1 -9 -13 -3 22 21 8 21
40 19 12 36 46 55 73 70 49 43 43 25 23 9 6 7 13 19 21 17 30 37 39 40 44 52 52 46 43 50 41 32 24 13 5 3 5 -2 -24 -6 7 33 16
38 6 8 34 54 69 55 52 47 52 34 15 -3 4 6 9 10 10 9 12 21 32 36 43 48 57 55 38 33 31 36 36 34 22 7 7 9 1 2 18 17 -3 26
12 0 11 31 45 44 54 55 53 38 13 -5 -12 -10 -7 -8 -6 -3 2 10 10 15 15 18 18 19 20 15 20 26 33 41 40 41 35 31 26 26 22 36 31 16 13
9 4 5 18 34 42 49 51 30 14 -10 -16 -21 -21 -16 -17 -16 -9 -6 -9 -6 4 7 9 11 5 6 5 1 1 15 33 35 42 52 36 47 70 78 68 52 50 39
-12 -3 -9 1 23 41 41 18 13 0 -11 -20 -24 -25 -27 -27 -26 -17 -6 -6 -10 -9 -4 2 10 6 -1 -7 -7 -4 -2 13 11 22 35 38 45 43 64 80 83 73 59
-33 -34 -11 10 20 12 -2 4 9 -9 -17 -22 -22 -12 -10 -13 -24 -25 -16 -19 -17 -16 -13 -3 8 9 8 2 2 6 7 9 5 4 18 29 35 29 48 64 73 77 72
-55 -40 -16 -9 -14 -8 -13 -15 -5 -20 -22 -21 -10 1 -4 -16 -20 -22 -24 -22 -9 -4 -4 7 20 24 15 9 2 -1 3 3 12 12 8 4 28 31 40 50 60 65 66
-45 -43 -29 -27 -32 -30 -36 -26 -31 -36 -34 -19 -3 -1 -1 2 3 4 6 7 32 42 51 65 56 36 19 1 8 12 1 -7 -1 12 18 24 30 26 32 38 46 51 59
-36 -47 -51 -43 -45 -42 -48 -40 -40 -35 -18 -12 -2 6 21 31 27 42 53 48 54 71 66 63 52 35 25 10 23 32 25 15 11 2 -1 13 31 42 41 46 53 66 58
-4 -41 -27 -28 -34 -55 -43 -30 -27 -14 4 5 10 30 43 64 80 81 87 75 82 90 106 99 74 51 43 33 25 23 43 55 58 56 57 72 68 67 60 57 56 51 59
-9 -30 -33 -25 -38 -40 -24 -7 -9 -8 7 24 41 61 75 85 95 106 142 146 151 149 137 115 107 74 42 21 13 30 52 79 90 95 93 114 128 133 123 110 93 79 73
-5 6 -4 -22 -29 -14 -14 1 9 8 21 59 86 93 106 106 127 184 218 211 181 159 135 106 91 56 36 9 0 65 82 75 79 98 113 112 143 168 177 158 150 141 121
53 97 93 92 24 10 3 -1 -1 17 71 120 126 142 153 170 209 223 223 199 175 131 125 134 128 110 82 46 82 94 94 90 104 124 120 137 157 194 212 227 219 185 157
182 215 268 298 120 142 130 118 -22 82 134 172 187 187 201 234 246 223 197 142 133 91 76 111 89 65 49 80 93 103 97 100 120 131 149 175 186 222 235 279 263 246 244
269 382 458 431 308 232 102 248 115 137 230 248 227 218 200 201 154 102 175 75 68 94 115 83 64 53 76 124 137 150 143 133 124 148 141 132 150 160 175 236 284 258 250
395 507 547 487 363 205 235 208 194 219 193 174 160 124 164 190 142 204 169 172 183 139 119 92 84 77 71 89 82 125 106 117 164 172 145 131 111 112 115 111 99 135 221
403 486 436 354 165 104 123 120 125 115 135 102 100 147 161 188 201 190 175 160 119 91 41 34 45 90 72 80 72 105 100 107 143 184 120 91 91 57 34 18 25 39 80
192 130 77 59 64 48 41 24 46 45 50 102 151 200 204 189 166 147 124 86 72 62 102 101 89 55 51 112 82 87 135 152 139 124 98 108 87 63 50 42 20 21 32
-18 23 19 -4 25 18 49 73 86 94 114 139 183 189 176 170 149 134 133 137 122 118 134 114 139 146 144 152 168 202 230 219 162 121 123 99 84 29 23 25 34 32 30
49 67 60 25 27 48 63 72 90 93 127 182 219 208 175 157 178 146 151 157 172 162 160 133 140 154 170 187 139 130 113 102 96 51 75 94 50 70 78 73 70 88 92
6 26 62 58 50 55 78 108 159 193 204 186 189 174 187 194 182 172 176 182 160 120 90 80 95 111 118 126 124 118 107 79 69 104 95 86 53 24 32 60 78 102 136
38 100 79 98 95 100 136 171 191 206 191 192 176 179 177 174 158 157 135 128 87 89 101 83 111 110 94 89 98 94 102 115 104 84 101 108 111 87 101 79 66 87 128

GFSSE_con_3kmhel_027.txt.gz
Helicity
9 -8 -6 18 28 58 67 53 61 75 76 77 67 67 64 80 96 74 49 31 32 40 44 43 41 40 40 33 26 22 17 15 15 13 9 -10 9 36 43 38 37 41 34
18 -3 -8 26 42 61 62 57 70 79 72 61 51 52 74 80 60 42 36 36 33 38 43 50 51 50 50 45 31 25 23 15 10 8 2 -4 12 38 34 22 32 39 29
36 6 -0 30 50 56 57 70 79 75 62 53 55 68 64 42 33 35 34 30 37 46 50 47 46 50 47 41 35 34 30 25 26 23 4 20 41 68 26 17 26 31 30
99 25 3 16 37 43 55 60 73 61 48 50 53 40 24 20 23 26 30 27 31 42 46 52 54 48 37 37 39 39 32 28 29 22 13 16 30 44 23 24 16 33 42
52 10 2 13 26 38 41 54 57 42 41 41 19 11 13 15 19 23 13 10 23 36 44 50 50 42 31 25 28 32 35 34 33 24 21 28 25 29 34 38 37 16 60
19 -0 4 14 25 35 46 57 48 47 28 1 1 7 6 10 11 8 5 20 32 36 38 34 30 29 23 15 22 29 37 38 26 44 33 36 33 42 52 66 81 57 31
-2 -14 -4 8 27 38 48 53 45 23 4 1 3 -10 -7 6 13 17 17 14 18 28 33 29 21 14 12 9 13 16 27 26 26 43 49 34 23 39 51 74 75 61 56
-9 -18 -8 14 32 42 52 50 30 13 -0 -4 -16 -12 -0 7 4 6 5 15 20 22 22 22 22 16 8 7 6 5 8 11 13 25 32 38 52 47 51 62 71 64 60
-28 -11 -0 12 25 41 50 29 6 1 -4 -15 -14 -12 -4 -1 -0 1 4 1 -2 10 23 28 29 19 6 1 -4 -6 -5 1 5 5 18 20 44 47 65 67 68 61 55
-29 -8 -3 9 23 25 17 -3 -9 -7 -14 -14 -14 -6 5 9 11 15 -1 -6 -15 -11 15 31 34 30 29 16 5 1 -0 -6 -0 -1 2 14 40 49 51 72 85 88 77
-36 -16 -3 13 5 3 -5 -18 -17 -19 -21 -14 -9 4 8 10 19 17 7 -5 5 13 35 64 70 64 41 28 18 12 -3 8 8 11 11 24 27 38 43 58 72 85 98
-18 -13 -12 -10 -0 -10 -27 -27 -31 -24 -26 -19 -7 7 15 26 21 20 28 40 69 71 95 102 96 76 53 19 6 7 12 25 28 26 36 48 46 37 36 35 44 54 71
-7 -8 -15 -17 -23 -31 -36 -35 -29 -18 -14 -7 4 11 26 32 32 40 56 71 102 102 87 94 96 81 60 25 10 -1 -1 25 42 52 74 81 75 81 68 57 47 45 55
-24 -29 -25 -34 -23 -32 -28 -24 -14 -11 -2 11 23 32 36 48 66 89 106 113 121 109 122 126 107 85 83 55 29 -2 -11 15 29 40 57 88 101 98 98 96 102 100 92
-26 -18 -18 -16 -20 -24 -12 -13 -6 5 14 28 43 60 63 82 102 113 121 132 143 141 144 143 113 74 78 64 45 20 15 47 65 74 70 90 111 129 144 149 137 130 123
-21 10 21 19 14 10 4 6 3 3 29 53 70 83 96 100 115 129 137 132 129 134 128 102 117 59 88 77 59 59 60 90 116 127 124 124 162 183 186 182 182 174 164
6 62 118 128 58 49 46 40 30 -1 25 76 84 117 146 145 136 116 118 148 154 194 172 91 116 89 102 76 64 71 81 118 141 155 157 173 171 183 209 227 231 221 206
58 134 193 242 193 180 156 128 -12 -88 27 79 135 145 149 136 129 152 215 188 155 179 114 123 111 87 81 86 107 130 141 158 161 167 174 187 190 172 159 201 205 193 177
104 193 289 353 364 292 125 144 46 69 34 67 99 122 131 140 147 232 210 175 163 145 148 120 107 84 85 99 106 105 130 144 158 191 202 194 196 196 187 198 204 169 166
208 298 397 416 378 206 10 81 83 92 95 96 125 129 148 166 163 153 164 132 127 142 134 112 88 84 67 84 87 108 105 116 179 224 225 191 185 170 152 153 133 123 132
226 277 284 332 243 115 97 76 67 44 84 106 104 147 152 159 159 156 139 144 128 118 88 80 72 105 128 134 88 116 85 80 123 173 216 199 207 160 155 142 126 107 109
137 157 153 85 82 39 30 -5 24 67 82 116 134 182 179 149 137 142 146 131 129 142 158 152 134 94 96 127 111 99 151 136 216 239 213 197 186 144 155 105 99 89 76
28 2 2 39 31 9 -4 11 66 118 126 136 166 172 162 161 167 170 145 135 146 144 146 127 131 123 124 155 196 220 244 265 253 210 181 174 175 126 90 71 58 86 77
10 5 19 27 17 -2 12 35 70 85 108 161 179 183 198 194 184 184 163 150 153 145 136 115 109 116 127 185 176 161 168 185 210 181 159 139 136 96 82 68 87 114 120
44 43 85 97 83 79 70 83 111 153 181 202 202 195 177 156 154 156 152 169 178 169 120 94 67 91 128 149 163 163 150 139 106 131 140 129 106 87 70 104 101 106 90
38 88 141 87 119 120 130 148 165 175 184 204 186 169 168 167 158 147 149 150 161 141 117 102 95 112 125 119 117 99 77 87 76 72 85 94 92 70 78 79 115 81 67

GFSSE_con_3kmhel_030.txt.gz
Helicity
39 35 3 13 16 34 56 77 71 64 56 58 60 60 73 69 43 28 31 37 39 42 40 39 37 32 25 21 13 11 12 14 20 24 28 47 68 84 76 55 41 59 50
45 30 21 16 18 30 52 66 63 51 49 55 61 66 58 37 27 36 48 48 46 47 43 40 42 42 39 38 36 28 31 35 33 32 20 -1 86 92 80 80 78 52 40
36 35 24 16 9 26 53 57 50 43 47 62 51 45 41 36 39 48 41 35 34 32 34 39 39 38 36 35 32 31 32 39 38 14 4 34 66 90 77 86 62 41 13
34 74 25 15 13 35 45 42 41 45 59 60 36 35 36 41 47 35 29 21 21 28 38 42 37 33 41 45 53 58 53 38 22 23 36 54 49 70 65 77 40 35 51
50 58 29 28 21 28 40 43 40 50 59 41 29 31 35 35 28 20 11 16 26 34 35 39 43 42 31 28 29 41 60 49 -1 14 49 49 46 49 53 61 65 51 88
42 27 27 25 23 37 39 36 39 61 46 28 25 26 26 20 17 16 11 18 23 26 27 24 22 15 10 8 6 15 18 25 15 48 48 40 60 43 49 56 45 55 53
2 13 11 2 33 36 32 35 56 41 18 18 22 17 12 16 15 12 12 14 19 18 14 12 12 11 8 9 13 12 18 -9 1 26 35 49 54 59 59 61 60 57 54
7 12 17 14 38 27 30 45 47 21 20 18 11 11 10 14 15 16 14 11 12 10 15 15 22 24 27 23 20 11 11 6 9 18 11 32 48 49 62 72 69 66 62
-13 12 14 18 25 28 33 46 31 23 14 -0 2 4 16 21 23 18 13 7 1 11 18 31 40 43 47 35 20 5 -6 -24 -0 9 10 34 41 45 47 65 79 80 75
7 17 9 18 9 15 34 32 16 8 -4 -1 2 12 24 23 18 12 14 14 7 26 40 57 59 57 48 40 28 9 -26 -48 13 7 16 42 42 40 43 48 64 69 71
11 6 5 6 17 23 23 21 8 -0 1 9 11 15 1 11 14 23 42 46 49 65 76 77 73 62 20 32 33 7 -37 14 -2 16 24 56 50 58 57 51 54 60 62
-4 -0 5 17 22 22 13 8 1 -2 -4 4 8 10 14 18 27 43 61 74 81 74 82 90 86 60 48 47 33 2 18 -7 -1 -4 51 56 48 52 60 75 79 74 73
-9 21 17 25 28 11 11 3 -4 -7 -0 10 19 20 31 22 28 36 47 53 58 55 69 85 91 97 72 44 32 18 2 -7 17 7 76 75 60 60 67 72 85 109 121
10 23 30 33 21 17 -2 -3 -2 4 19 26 34 31 28 32 45 47 58 66 63 75 84 97 121 102 87 68 46 37 26 14 25 7 64 124 87 97 111 117 109 104 116
-3 10 15 22 13 8 11 11 23 32 44 47 50 60 39 47 76 78 90 85 84 89 109 101 122 117 86 91 49 51 34 23 19 33 50 172 139 137 145 150 158 160 146
7 18 28 24 19 23 34 25 32 34 33 48 57 72 50 52 97 98 84 85 98 144 167 136 135 109 76 93 92 59 27 36 59 81 96 130 166 150 164 175 176 173 184
22 52 56 60 46 40 54 72 53 33 38 26 73 69 98 92 91 87 97 118 174 213 179 165 120 108 109 100 65 53 58 81 98 117 120 153 167 146 132 180 196 190 177
53 79 126 137 136 173 212 173 67 12 13 -11 53 68 84 114 123 142 161 148 179 177 165 152 133 109 96 79 80 71 77 88 114 99 122 148 190 191 160 227 191 200 190
76 127 175 234 288 309 288 164 -159 -5 57 40 34 67 117 157 154 156 180 193 169 154 155 130 107 90 86 101 83 68 77 76 85 118 144 150 163 183 192 233 175 147 189
113 141 190 252 324 259 198 -10 36 36 58 52 64 100 109 132 153 158 176 170 139 148 135 109 90 92 83 110 88 74 79 55 78 133 154 155 166 172 156 195 197 190 198
156 167 144 191 203 124 86 42 43 33 38 55 71 103 126 146 163 167 169 154 130 136 123 111 114 130 105 118 74 103 74 67 88 124 154 134 147 175 176 174 151 186 182
140 121 104 92 55 42 28 44 21 34 33 68 93 127 151 169 192 197 173 160 143 150 148 142 135 114 114 142 108 95 144 181 111 239 204 168 176 219 182 181 158 147 119
54 48 26 17 42 48 57 50 44 56 64 82 126 164 201 208 209 194 159 165 157 145 145 122 143 118 149 116 158 154 203 253 288 179 208 145 208 174 161 145 153 146 127
47 34 31 56 77 78 53 56 60 82 94 144 174 212 212 184 160 156 163 140 124 112 117 121 127 117 111 121 125 141 167 170 216 259 188 118 81 103 100 91 107 106 102
17 16 56 114 133 116 99 93 106 144 169 180 192 195 175 168 148 147 128 118 110 101 112 136 154 147 128 144 141 168 174 148 122 160 167 105 109 99 98 101 88 62 89
108 124 134 155 138 146 132 140 168 181 166 169 187 177 172 155 147 133 111 114 129 137 152 170 160 131 133 137 125 118 106 110 100 109 120 104 73 76 104 87 80 62 56

GFSSE_con_3kmhel_033.txt.gz
Helicity
95 70 66 26 33 49 56 64 74 80 80 62 56 56 55 49 42 44 42 35 32 31 30 29 31 29 25 28 31 31 27 23 15 6 27 55 93 100 103 114 121 82 55
93 50 55 33 44 47 52 65 78 77 62 52 58 55 50 37 42 43 40 34 33 36 36 36 36 41 43 42 35 31 28 20 4 -20 7 35 59 78 78 84 84 58 43
76 51 26 42 65 42 38 55 63 56 50 62 63 45 31 36 45 45 36 29 27 31 34 33 30 32 33 34 38 38 25 9 -18 -32 -37 4 78 64 68 53 50 53 45
57 41 15 66 55 39 37 54 50 46 61 67 45 29 36 41 37 31 27 17 20 32 31 33 31 27 28 29 33 30 20 4 -7 7 40 33 58 48 58 47 42 60 71
39 5 75 63 49 42 39 50 50 59 66 51 30 34 36 29 26 24 16 15 22 25 21 20 21 28 29 26 30 32 20 26 -25 -22 68 63 69 59 67 70 56 46 54
21 117 90 34 52 44 49 54 55 68 59 45 40 34 25 24 23 18 18 22 23 18 20 19 20 21 23 24 27 30 25 58 46 19 31 83 68 55 64 69 63 57 58
83 84 57 29 41 54 50 53 68 67 59 55 44 29 22 23 17 21 22 20 14 18 12 10 16 17 15 21 21 19 21 22 11 18 21 66 41 46 57 60 63 74 72
131 46 17 27 53 51 57 62 73 64 58 48 39 24 21 20 21 25 26 14 6 2 10 16 27 30 27 24 25 11 -18 4 10 20 8 57 45 45 42 52 55 54 63
54 25 30 62 64 59 56 60 56 55 43 38 32 23 20 22 27 32 27 17 7 8 13 24 35 36 37 33 30 9 -13 -10 14 7 8 73 40 43 44 40 49 52 53
38 44 38 38 21 31 39 55 54 39 31 32 26 17 11 18 17 18 24 30 23 30 32 34 34 30 27 33 21 6 7 -1 10 22 58 42 60 57 54 51 49 52 54
34 23 -10 13 13 27 37 41 41 33 20 20 17 -0 -6 -0 5 28 61 44 50 55 53 48 49 44 30 30 9 -6 -10 16 3 21 56 43 48 45 56 65 69 71 76
35 33 40 35 39 16 24 13 17 8 -1 -2 3 2 -5 24 43 64 57 52 57 51 49 47 37 19 50 55 66 43 39 8 14 27 79 82 64 44 46 57 71 87 97
10 26 38 38 13 16 47 29 -3 -12 5 16 33 16 49 16 21 14 45 35 46 46 41 56 74 96 83 63 50 35 31 19 30 40 75 99 91 60 75 87 86 100 112
14 28 44 51 51 60 25 -3 22 44 44 47 42 38 29 15 31 39 45 60 38 64 63 82 102 104 80 61 55 42 25 25 32 24 48 92 103 83 84 108 119 117 109
57 59 50 41 41 44 47 59 67 57 31 32 47 58 74 91 70 48 65 48 74 75 96 126 169 137 80 65 62 50 43 16 21 30 59 123 132 105 95 118 128 135 140
43 49 53 51 47 46 69 76 47 43 26 42 44 85 136 126 84 71 53 78 105 173 186 140 137 82 96 78 68 59 58 29 22 49 71 57 132 118 95 99 113 123 127
40 66 70 76 77 109 140 140 137 104 22 10 67 66 113 123 139 84 168 232 138 131 103 126 120 129 102 86 59 69 59 70 77 83 83 64 113 119 117 119 113 118 124
76 75 88 91 118 238 198 241 206 117 38 28 7 37 117 136 158 166 174 156 135 124 140 147 143 113 84 62 54 72 81 74 85 76 59 148 155 153 143 125 152 115 124
87 102 103 154 248 240 221 256 238 181 68 -1 12 99 99 106 118 123 147 145 120 140 135 106 81 62 63 68 81 109 84 66 76 66 73 183 127 93 146 126 196 121 121
101 119 123 184 204 231 187 176 52 19 31 42 55 57 74 90 98 108 157 148 112 125 119 143 96 89 96 89 88 103 51 89 62 122 90 106 160 138 143 178 141 103 178
174 117 113 205 170 136 106 61 50 50 50 59 40 50 64 110 116 125 139 121 101 105 90 65 86 82 82 90 105 92 109 22 88 104 59 236 227 159 182 207 127 186 116
156 171 141 138 113 68 52 57 58 61 52 42 64 70 93 105 146 144 150 150 171 113 101 125 119 119 122 154 131 148 160 142 121 266 309 264 151 180 147 143 142 113 131
139 123 121 72 36 33 104 89 87 81 89 82 87 77 135 153 168 154 149 150 138 118 146 171 170 168 176 131 140 147 170 213 242 175 173 181 214 158 99 60 89 104 126
109 65 54 31 50 100 80 85 86 73 87 159 145 184 179 173 173 166 170 156 153 156 163 166 181 224 135 169 149 146 166 193 244 251 182 123 100 75 89 90 82 87 81
85 51 55 85 133 145 103 108 101 104 148 173 161 207 143 152 114 115 133 161 153 139 142 154 160 155 147 166 185 195 181 191 165 191 229 165 89 66 57 66 86 75 42
93 71 128 119 163 116 140 163 169 186 181 180 121 147 166 205 158 164 164 169 161 124 114 149 206 177 192 146 111 152 151 161 146 142 129 95 94 62 84 71 64 63 61